Regional Weather Roundup
Issued by NWS

Home | Current Version | Previous Version | Graphics & Text | Print | Product List | Glossary On
Versions: 1 2 3 4 5 6 7 8 9 10 11 12 13 14 15 16 17 18 19 20 21 22 23 24 25 26 27 28 29 30 31 32 33 34 35 36 37 38 39 40 41 42 43 44 45 46 47 48 49 50
000
ASUS43 KDTX 302010
RWRMI
MICHIGAN HOURLY REGIONAL WEATHER ROUNDUP
NATIONAL WEATHER SERVICE DETROIT/PONTIAC MI
300 PM EST FRI JAN 30 2015

NOTE: "FAIR" INDICATES FEW OR NO CLOUDS BELOW 12,000 FEET WITH NO
SIGNIFICANT WEATHER AND/OR OBSTRUCTION TO VISIBILITY.

MIZ047>049-052>055-059>063-066>070-074>076-081>083-302100-
SOUTHEAST LOWER MICHIGAN

CITY           SKY/WX    TMP DP  RH WIND       PRES   REMARKS
ADRIAN         SUNNY     23   7  50 N14       30.43S
ALMA           MOSUNNY   20   7  55 NW9       30.44S
ANN ARBOR      SUNNY     22   6  50 N14       30.42S
BAD AXE        SUNNY     13   2  61 NW12      30.42S WCI  -1
DETROIT CITY   SUNNY     21   2  43 NW10      30.43R
DETROIT        MOSUNNY   21   4  47 NW14      30.43S
FLINT          MOSUNNY   20   2  45 NW13      30.42F
GROSSE ILE     SUNNY     19   3  49 NW9G16    30.42S
HILLSDALE      MOSUNNY   22   8  56 NW8       30.40S
HOWELL         SUNNY     18   4  53 NW9       30.41S

CITY           SKY/WX    TMP DP  RH WIND       PRES   REMARKS
JACKSON        CLOUDY    22   8  55 NW10      30.42S
LAMBERTVILLE   SUNNY     23   9  54 N10       30.44S
LANSING        PTSUNNY   21   8  57 N9        30.44S
LAPEER         NOT AVBL
MASON          MOSUNNY   20   7  57 NW10      30.42S
MONROE         SUNNY     21   7  53 NW10      30.42S
MT. CLEMENS    MOSUNNY   16   2  53 N15       30.42R
PONTIAC        MOSUNNY   17   3  54 NW9       30.39S
PORT HOPE        N/A     13   4  67 NW8G18    30.41R
PORT HURON     MOSUNNY   14   3  62 NW16G22   30.43R WCI  -2
TRI CITIES     SUNNY     21   3  45 N12       30.43F
YPSILANTI      SUNNY     24   4  42 NW12G28   30.43S
$$
MIZ043>046-050>051-056>058-064>065-071>073-077>080-302100-
SOUTHWEST LOWER MICHIGAN

CITY           SKY/WX    TMP DP  RH WIND       PRES   REMARKS
BATTLE CREEK   MOSUNNY   23   9  55 NW10      30.43S
BENTON HARBOR  CLOUDY    24  17  74 VRB5      30.46F
BIG RAPIDS     CLOUDY    22   8  54 N6        30.39F
COLDWATER      MOSUNNY   23   8  53 NW7       30.43S
HOLLAND        CLOUDY    24  12  60 NW7       30.45F
GRAND RAPIDS   PTSUNNY   23   9  55 N5        30.43F
KALAMAZOO        N/A     25   9  50 N7        30.43F
MARSHALL       MOSUNNY   22   9  56 NW8       30.42S
MUSKEGON       FLURRIES  23  10  57 NW6       30.45F
$$
MIZ016>042-302100-
NORTHERN LOWER MICHIGAN

CITY           SKY/WX    TMP DP  RH WIND       PRES   REMARKS
ALPENA         SUNNY     12   1  61 NW10      30.41F WCI  -1
BEAVER ISLAND  LGT SNOW  15  11  83 CALM      30.41F
CADILLAC       CLOUDY    17   8  66 NW3       30.35F
CHARLEVOIX     CLOUDY    16   7  67 CALM      30.45F
FRANKFORT      CLOUDY    19  11  70 CALM      30.44F
GAYLORD        SUNNY     14   1  56 W12       30.35F
GRAYLING       MOSUNNY   16   2  55 W10G17    30.38F
HARBOR SPRINGS MOSUNNY   13   3  63 SW5       30.42F
HOUGHTON LAKE  PTSUNNY   16   2  54 W8        30.38F
MANISTEE       CLOUDY    19   9  63 NW8       30.45S
OSCODA         SUNNY     15   0  51 W8        30.41F
PELLSTON       MOSUNNY   15   3  59 NW8       30.42F
TRAVERSE CITY  FLURRIES  19   9  65 SE3       30.42F
$$
MIZ007>008-015-302100-
EASTERN UPPER MICHIGAN

CITY           SKY/WX    TMP DP  RH WIND       PRES   REMARKS
KINROSS        CLOUDY    14   1  57 CALM      30.39F
MACKINAC ISLAN PTSUNNY   10   2  69 SW5       30.41S
NEWBERRY       CLOUDY    10   5  80 S7        30.37F
S. S. MARIE    MOSUNNY   11  -1  58 W6        30.38F
$$
MIZ004>006-011>014-085-302100-
CENTRAL UPPER MICHIGAN

CITY           SKY/WX    TMP DP  RH WIND       PRES   REMARKS
MANISTIQUE     CLOUDY    17   8  68 W12       30.40F
ESCANABA       SUNNY     16   1  53 W5        30.43F
MENOMINEE      MOSUNNY   18   3  53 S8        30.43F
SAWYER-GWINN   PTSUNNY   14   1  57 W5        30.34F
$$
MIZ001>003-009>011-084-302100-
WESTERN UPPER MICHIGAN

CITY           SKY/WX    TMP DP  RH WIND       PRES   REMARKS
IRON MOUNTAIN  CLOUDY    17   3  54 W6        30.35F
HOUGHTON       CLOUDY    13   6  74 S5        30.33F
COPPER HARBOR    N/A     15   6  67 N6        30.38F
IRONWOOD       CLOUDY    18   3  53 W7        30.32F
$$

ABBREVIATIONS USED IN REMARKS
   TC - TEMPERATURE IN CELSIUS
  WCI - WIND CHILL INDEX
   HX - HEAT INDEX
  VSB - VISIBILITY




USA.gov is the U.S. government's official web portal to all federal, state and local government web resources and services.